Home > Weather > Katowice > Past weeks

Flag for Poland Past Weather in Katowice, Poland — Yesterday and Last 2 Weeks

Now
52 °F

Clear.


Feels Like: 52 °F
Forecast: 50 / 71 °F
Wind: 1 mph from North

Location: Katowice Airport

Current Time: May 25, 2016 at 1:29:08 AM

Latest Report: May 25, 2016 at 1:00 AM


Visibility: 10 mi

Pressure: 29.77 "Hg

Humidity: 77%

Dew Point: 45 °F

Location of KatowiceLocation

Past Weather in Katowice — Graph

°F

Katowice Temperature Yesterday

Maximum temperature yesterday: 79 °F (at 2:30 PM)
Minimum temperature yesterday: 55 °F (at 3:00 AM)
Average temperature yesterday: 68 °F

High & Low Weather Summary for the Past Weeks

 TemperatureHumidityPressure
High81 °F (May 23, 1:30 PM)100% (May 10, 4:00 AM)30.12 "Hg (May 10, 4:00 AM)
Low36 °F (May 16, 2:00 AM)26% (May 23, 4:00 PM)29.36 "Hg (May 13, 9:30 AM)
Average56 °F68%29.85 "Hg
* Reported May 10 12:00 AM — May 25 12:00 AM, Katowice, Weather by CustomWeather, © 2016

Note: Actual official high and low records may vary slightly from our data, if they occured in-between our weather recording intervals... More about our weather records

Advertising

Katowice Weather History for the Previous 24 Hours

Scroll right to see more
 ConditionsComfort  
Time TempWeatherWind HumidityBarometerVisibility
12:00 AM
Wed, May 25
54 °FClear.1 mph72%29.74 "Hg10 mi
11:30 PM
Tue, May 24
57 °FClear.5 mph63%29.74 "Hg10 mi
11:00 PM61 °FClear.5 mph55%29.74 "Hg10 mi
10:30 PM63 °FClear.7 mph52%29.74 "Hg10 mi
10:00 PM64 °FClear.8 mph49%29.74 "Hg10 mi
9:30 PM64 °FSunny.7 mph52%29.74 "Hg10 mi
9:00 PM66 °FSunny.6 mph49%29.74 "Hg10 mi
8:30 PM70 °FSunny.9 mph40%29.71 "Hg10 mi
8:00 PM72 °FSunny.10 mph38%29.71 "Hg10 mi
7:30 PM73 °FSunny.12 mph36%29.71 "Hg10 mi
7:00 PM75 °FSunny.10 mph34%29.68 "Hg10 mi
6:30 PM75 °FPassing clouds.10 mph34%29.68 "HgN/A
6:00 PM75 °FPassing clouds.10 mph34%29.68 "HgN/A
5:30 PM79 °FPassing clouds.12 mph30%29.65 "HgN/A
5:00 PM77 °FPassing clouds.15 mph34%29.68 "HgN/A
4:30 PM79 °FPassing clouds.13 mph32%29.68 "HgN/A
4:00 PM79 °FPassing clouds.12 mph32%29.68 "HgN/A
3:30 PM79 °FPassing clouds.15 mph34%29.68 "HgN/A
3:00 PM77 °FPassing clouds.12 mph39%29.68 "HgN/A
2:30 PM79 °FPassing clouds.14 mph34%29.68 "HgN/A
2:00 PM77 °FPassing clouds.15 mph39%29.68 "HgN/A
1:30 PM75 °FPassing clouds.16 mph41%29.68 "HgN/A
1:00 PM77 °FPassing clouds.15 mph39%29.68 "HgN/A
12:30 PM77 °FPassing clouds.15 mph42%29.68 "HgN/A
12:00 PM75 °FPassing clouds.16 mph44%29.68 "HgN/A
11:30 AM75 °FPassing clouds.15 mph44%29.71 "HgN/A
11:00 AM75 °FPassing clouds.14 mph44%29.68 "HgN/A
10:30 AM75 °FPassing clouds.13 mph44%29.68 "HgN/A
10:00 AM75 °FPassing clouds.14 mph44%29.68 "HgN/A
9:30 AM73 °FPassing clouds.9 mph50%29.68 "HgN/A
9:00 AM73 °FPassing clouds.9 mph53%29.71 "HgN/A
8:30 AM68 °FPassing clouds.5 mph64%29.71 "HgN/A
8:00 AM66 °FPassing clouds.6 mph64%29.71 "HgN/A
7:30 AM64 °FSunny.6 mph68%29.71 "Hg10 mi
7:00 AM63 °FSunny.3 mph73%29.71 "Hg10 mi
6:30 AM61 °FSunny.1 mph77%29.71 "Hg10 mi
6:00 AM57 °FSunny.3 mph82%29.71 "Hg10 mi
5:30 AM55 °FClear.3 mph88%29.71 "Hg10 mi
5:00 AM55 °FClear.3 mph88%29.71 "Hg10 mi
4:30 AM55 °FClear.5 mph88%29.71 "Hg10 mi
4:00 AM55 °FClear.3 mph88%29.71 "Hg10 mi
3:30 AM55 °FClear.3 mph88%29.74 "Hg10 mi
3:00 AM55 °FClear.2 mph88%29.74 "Hg10 mi
2:30 AM57 °FClear.2 mph82%29.74 "Hg10 mi
2:00 AM57 °FClear.3 mph82%29.74 "Hg10 mi
1:30 AM57 °FClear.3 mph82%29.74 "Hg10 mi
1:00 AM59 °FClear.2 mph77%29.74 "Hg10 mi
Weather by CustomWeather, © 2016

See weather overviewHow to use our weather pages